Concordia, KS

12:57 AM CST on November 17, 2019 (GMT -0600)
Blosser Municipal

Weather History for KCNK - October, 2019

Change the Weather History Date:

Monday, October 21, 2019

  Actual Average Record
Temperature  
Mean Temperature 52 °F 54 °F  
Max Temperature 59 °F 65 °F 89 °F (1899)
Min Temperature 44 °F 42 °F 23 °F (1987)
Degree Days  
Heating Degree Days 13 12  
Month to date heating degree days 173 181  
Since 1 July heating degree days 176 254  
Cooling Degree Days 0 0  
Month to date cooling degree days 9 20  
Year to date cooling degree days 1657 1346  
Growing Degree Days 2 (Base 50)    
Moisture  
Dew Point 34 °F    
Average Humidity 54    
Maximum Humidity 65    
Minimum Humidity 43    
Precipitation  
Precipitation 0.00 in 0.07 in 1.53 in (1900)
Month to date precipitation 1.20 1.40  
Year to date precipitation 32.22 25.41  
Snow  
Snow 0.00 in 0.00 in 0.00 in (1994)
Month to date snowfall 0.0 0.0  
Year to date snowfall 32.3 13.7  
Since 1 July snowfall 0.0 0.0  
Snow Depth 0.00 in    
Sea Level Pressure  
Sea Level Pressure 29.67 in    
Wind  
Wind Speed 20 mph (WNW)    
Max Wind Speed 35 mph    
Max Gust Speed 48 mph    
Visibility 10 miles    
Events      
T = Trace of Precipitation, MM = Missing Value Source: NWS Daily Summary

Daily Weather History Graph

Daily Weather History Graph

Search for Another Location

Airport or City:

Astronomy

Oct. 21, 2019 Rise Set
Actual Time 7:46 AM CDT 6:43 PM CDT
Civil Twilight 7:19 AM CDT 7:10 PM CDT
Nautical Twilight 6:48 AM CDT 7:41 PM CDT
Astronomical Twilight 6:16 AM CDT 8:12 PM CDT
Moon No Moon Rise 3:04 PM CDT (10/21)
Length of Visible Light 11h 51m
Length of Day
10h 56m
Waning Gibbous, 48% of the Moon is Illuminated
Oct 21
Waning Gibbous
Oct 27
New
Nov 4
First Quarter
Nov 12
Full
Nov 19
Last Quarter

Hourly Weather History & Observations

Time (CDT) Temp. Windchill Dew Point Humidity Pressure Visibility Wind Dir Wind Speed Gust Speed Precip Events Conditions
12:55 AM 51.1 °F - 33.1 °F 50% 29.53 in 10.0 mi West 15.0 mph 25.3 mph N/A   Clear
1:55 AM 48.9 °F - 34.0 °F 56% 29.53 in 10.0 mi West 13.8 mph - N/A   Clear
2:55 AM 46.9 °F - 34.0 °F 61% 29.54 in 10.0 mi West 20.7 mph - N/A   Clear
3:55 AM 45.0 °F 38.2 °F 34.0 °F 65% 29.55 in 10.0 mi West 15.0 mph 23.0 mph N/A   Clear
4:55 AM 45.0 °F 38.2 °F 34.0 °F 65% 29.58 in 10.0 mi West 15.0 mph 26.5 mph N/A   Partly Cloudy
5:55 AM 45.0 °F 38.2 °F 34.0 °F 65% 29.56 in 10.0 mi West 15.0 mph - N/A   Mostly Cloudy
6:55 AM 48.9 °F - 34.0 °F 56% 29.55 in 10.0 mi West 19.6 mph 29.9 mph N/A   Overcast
7:55 AM 50.0 °F - 34.0 °F 54% 29.54 in 10.0 mi WNW 23.0 mph 33.4 mph N/A   Overcast
8:55 AM 50.0 °F - 34.0 °F 54% 29.53 in 10.0 mi West 18.4 mph 27.6 mph N/A   Overcast
9:55 AM 52.0 °F - 34.0 °F 50% 29.55 in 10.0 mi WNW 26.5 mph 38.0 mph N/A   Overcast
11:55 AM 50.0 °F - 37.0 °F 61% 29.61 in 10.0 mi WNW 23.0 mph 40.3 mph N/A   Overcast
12:55 PM 55.9 °F - 37.0 °F 49% 29.62 in 10.0 mi WNW 28.8 mph 41.4 mph N/A   Mostly Cloudy
1:55 PM 55.9 °F - 35.1 °F 45% 29.64 in 10.0 mi WNW 23.0 mph 39.1 mph N/A   Mostly Cloudy
2:55 PM 55.0 °F - 34.0 °F 45% 29.67 in 10.0 mi NW 28.8 mph 39.1 mph N/A   Overcast
3:55 PM 53.1 °F - 34.0 °F 48% 29.70 in 10.0 mi NW 26.5 mph 46.0 mph N/A   Overcast
4:55 PM 53.1 °F - 35.1 °F 50% 29.74 in 10.0 mi WNW 23.0 mph 38.0 mph N/A   Overcast
5:55 PM 53.1 °F - 34.0 °F 48% 29.77 in 10.0 mi WNW 16.1 mph 35.7 mph N/A   Overcast
6:55 PM 51.1 °F - 34.0 °F 52% 29.82 in 10.0 mi NW 19.6 mph 36.8 mph N/A   Mostly Cloudy
7:55 PM 50.0 °F - 33.1 °F 52% 29.86 in 10.0 mi NW 26.5 mph 36.8 mph N/A   Clear
8:55 PM 50.0 °F - 30.9 °F 48% 29.89 in 10.0 mi WNW 15.0 mph 26.5 mph N/A   Clear
9:55 PM 46.9 °F - 28.9 °F 50% 29.91 in 10.0 mi WNW 15.0 mph - N/A   Clear
10:55 PM 45.0 °F 39.7 °F 28.9 °F 53% 29.94 in 10.0 mi West 10.4 mph - N/A   Clear
11:55 PM 46.0 °F 39.6 °F 27.0 °F 47% 29.96 in 10.0 mi West 15.0 mph - N/A   Clear